N7IGG Weather Reports


Display with metric or nautical units.
time (UTC)temp
F
wind
direction
speed
MPH
gust
MPH
rain 1hr
in
rain 24hr
in
rain mn
in
humidity
%
barometer
mb
20260505083417 54 207 6.0 6.0 0.00 0.00 0.00 91 1013.0
20260505082913 54 146 2.0 10.0 0.00 0.00 0.00 91 1012.9
20260505082409 55 180 1.0 8.0 0.00 0.00 0.00 91 1012.9
20260505081906 55 198 6.0 11.0 0.00 0.00 0.00 91 1013.1
20260505081403 55 172 5.0 8.0 0.00 0.00 0.00 90 1013.0
20260505080859 55 160 1.0 5.0 0.00 0.00 0.00 90 1013.1
20260505080355 55 129 3.0 7.0 0.00 0.00 0.00 90 1013.1
20260505075851 55 109 1.0 9.0 0.00 0.00 0.00 90 1013.0
20260505075348 55 172 3.0 4.0 0.00 0.00 0.00 90 1013.0
20260505074845 55 144 3.0 8.0 0.00 0.00 0.00 90 1012.7
20260505074342 55 183 3.0 5.0 0.00 0.00 0.00 90 1012.8
20260505073840 55 129 2.0 6.0 0.00 0.00 0.00 90 1012.7
20260505073338 55 187 2.0 9.0 0.00 0.00 0.00 90 1012.7
20260505072834 55 144 3.0 8.0 0.00 0.00 0.00 90 1012.7
20260505072330 55 141 5.0 11.0 0.00 0.00 0.00 89 1012.5
20260505071826 55 217 7.0 9.0 0.00 0.00 0.00 89 1012.6
20260505071323 55 197 4.0 7.0 0.00 0.00 0.00 89 1012.5
20260505070821 55 180 2.0 5.0 0.00 0.00 0.00 89 1012.6
20260505070318 56 166 2.0 8.0 0.00 0.00 0.00 89 1012.2
20260505065813 56 198 2.0 9.0 0.00 0.00 0.00 89 1012.4
20260505065310 56 147 2.0 5.0 0.00 0.00 0.00 89 1012.2
20260505064807 56 133 3.0 10.0 0.00 0.00 0.00 89 1012.5
20260505064304 56 96 0.0 4.0 0.00 0.00 0.00 88 1012.2
20260505063802 56 211 9.0 10.0 0.00 0.00 0.00 88 1012.2
20260505063258 56 198 7.0 9.0 0.00 0.00 0.00 88 1012.2
20260505062754 56 146 2.0 7.0 0.00 0.00 0.00 88 1012.1
20260505062252 56 180 3.0 9.0 0.00 0.00 0.00 88 1012.0
20260505061749 56 155 2.0 6.0 0.00 0.00 0.00 88 1012.2
20260505061247 56 182 3.0 6.0 0.00 0.00 0.00 88 1012.1
20260505060744 56 198 7.0 8.0 0.00 0.00 0.00 87 1011.9
20260505060241 56 182 3.0 10.0 0.00 0.00 0.00 87 1012.0
20260505055736 56 165 3.0 6.0 0.00 0.00 0.00 87 1011.8
20260505055233 56 132 2.0 5.0 0.00 0.00 0.00 87 1011.7
20260505054730 56 180 3.0 6.0 0.00 0.00 0.00 87 1011.7
20260505054228 57 174 3.0 10.0 0.00 0.00 0.00 86 1011.7
20260505053726 57 180 5.0 10.0 0.00 0.00 0.00 86 1011.6
20260505053222 57 185 5.0 7.0 0.00 0.00 0.00 86 1011.7
20260505052719 57 145 4.0 8.0 0.00 0.00 0.00 86 1011.5
20260505052216 58 186 3.0 8.0 0.00 0.00 0.00 85 1011.7
20260505051713 58 194 7.0 10.0 0.00 0.00 0.00 85 1011.6
20260505051212 58 182 3.0 6.0 0.00 0.00 0.00 85 1011.6
20260505050709 58 142 4.0 7.0 0.00 0.00 0.00 85 1011.5
20260505050207 58 179 4.0 10.0 0.00 0.00 0.00 84 1011.4
20260505041637 60 199 6.0 9.0 0.00 0.00 0.00 79 1010.7
20260505041134 61 201 5.0 10.0 0.00 0.00 0.00 79 1010.8
20260505040631 61 193 7.0 9.0 0.00 0.00 0.00 78 1010.7
20260505040128 62 175 3.0 6.0 0.00 0.00 0.00 77 1010.4
20260505035624 62 213 4.0 5.0 0.00 0.00 0.00 77 1010.3
20260505035121 63 186 4.0 4.0 0.00 0.00 0.00 76 1010.4
20260505034617 63 162 2.0 7.0 0.00 0.00 0.00 76 1010.3
20260505034114 63 192 4.0 5.0 0.00 0.00 0.00 75 1010.2
20260505033611 64 196 2.0 4.0 0.00 0.00 0.00 74 1010.1
20260505033110 64 183 2.0 5.0 0.00 0.00 0.00 74 1010.1
20260505032607 64 172 2.0 6.0 0.00 0.00 0.00 73 1009.9
20260505032103 65 198 5.0 6.0 0.00 0.00 0.00 73 1010.0
20260505031601 65 147 2.0 6.0 0.00 0.00 0.00 73 1009.9
20260505031057 65 195 3.0 9.0 0.00 0.00 0.00 73 1009.8
20260505030554 65 191 3.0 8.0 0.00 0.00 0.00 73 1009.7
20260505030050 65 169 4.0 7.0 0.00 0.00 0.00 72 1009.8
20260505025545 65 189 6.0 10.0 0.00 0.00 0.00 71 1009.6
20260505025045 67 199 7.0 9.0 0.00 0.00 0.00 68 1009.4
20260505024541 68 186 6.0 9.0 0.00 0.00 0.00 65 1009.4
20260505024038 69 190 4.0 7.0 0.00 0.00 0.00 64 1009.4
20260505023535 69 199 4.0 8.0 0.00 0.00 0.00 64 1009.4
20260505023033 71 195 4.0 6.0 0.00 0.00 0.00 60 1009.2
20260505022531 73 200 4.0 7.0 0.00 0.00 0.00 58 1009.3
20260505022027 72 174 3.0 5.0 0.00 0.00 0.00 58 1009.4
20260505021524 72 191 3.0 8.0 0.00 0.00 0.00 58 1009.2
20260505021021 73 169 3.0 7.0 0.00 0.00 0.00 56 1009.3
20260505020520 73 194 4.0 7.0 0.00 0.00 0.00 57 1009.2
20260505020018 73 180 4.0 8.0 0.00 0.00 0.00 57 1009.3
20260505015515 74 228 4.0 6.0 0.00 0.00 0.00 56 1009.2
20260505015012 74 194 2.0 7.0 0.00 0.00 0.00 56 1009.2
20260505014509 73 139 2.0 7.0 0.00 0.00 0.00 57 1009.2
20260505014006 74 200 7.0 7.0 0.00 0.00 0.00 56 1009.2
20260505013503 74 186 4.0 8.0 0.00 0.00 0.00 56 1009.2
20260505013000 74 201 4.0 8.0 0.00 0.00 0.00 57 1009.1
20260505012458 74 172 2.0 7.0 0.00 0.00 0.00 57 1009.3
20260505011955 74 207 5.0 9.0 0.00 0.00 0.00 58 1009.2
20260505011451 75 201 7.0 7.0 0.00 0.00 0.00 56 1009.3
20260505010948 75 188 3.0 5.0 0.00 0.00 0.00 56 1009.2
20260505010443 74 182 4.0 9.0 0.00 0.00 0.00 57 1009.3
20260505005940 74 201 8.0 9.0 0.00 0.00 0.00 57 1009.5
20260505005436 75 168 4.0 6.0 0.00 0.00 0.00 55 1009.2
20260505004934 75 197 4.0 6.0 0.00 0.00 0.00 56 1009.4
20260505004431 75 228 5.0 8.0 0.00 0.00 0.00 55 1009.4
20260505003928 74 197 6.0 8.0 0.00 0.00 0.00 56 1009.4
20260505003425 75 192 4.0 9.0 0.00 0.00 0.00 55 1009.6
20260505002921 77 209 3.0 5.0 0.00 0.00 0.00 52 1009.3
20260505002418 75 225 3.0 7.0 0.00 0.00 0.00 54 1009.5
20260505001916 74 197 6.0 9.0 0.00 0.00 0.00 54 1009.6
20260505001413 75 198 6.0 8.0 0.00 0.00 0.00 54 1009.4
20260505000910 75 183 5.0 8.0 0.00 0.00 0.00 53 1009.4
20260505000408 75 197 7.0 7.0 0.00 0.00 0.00 52 1009.6
20260504235904 76 215 4.0 6.0 0.00 0.00 0.00 51 1009.3
20260504235402 75 208 6.0 6.0 0.00 0.00 0.00 53 1009.3
20260504234857 74 187 5.0 7.0 0.00 0.00 0.00 54 1009.5
20260504234355 76 198 4.0 5.0 0.00 0.00 0.00 52 1009.6
20260504233852 75 180 3.0 7.0 0.00 0.00 0.00 54 1009.5
20260504233348 77 185 2.0 4.0 0.00 0.00 0.00 52 1009.4
20260504232844 73 213 0.0 2.0 0.00 0.00 0.00 59 1009.4
20260504232342 75 194 3.0 3.0 0.00 0.00 0.00 54 1009.5
20260504231838 74 180 2.0 3.0 0.00 0.00 0.00 56 1009.4
20260504231334 70 191 0.0 4.0 0.00 0.00 0.00 62 1009.4
20260504230831 68 165 1.0 6.0 0.00 0.00 0.00 67 1009.6
20260504230329 69 219 2.0 5.0 0.00 0.00 0.00 64 1009.7
20260504225828 67 212 2.0 6.0 0.00 0.00 0.00 68 1009.5
20260504225323 70 213 4.0 6.0 0.00 0.00 0.00 63 1009.7
20260504224821 74 197 3.0 7.0 0.00 0.00 0.00 53 1009.9
20260504224318 76 218 4.0 6.0 0.00 0.00 0.00 51 1009.9
20260504223815 78 210 4.0 4.0 0.00 0.00 0.00 49 1010.0
20260504223310 76 210 0.0 3.0 0.00 0.00 0.00 54 1010.2
20260504222807 74 195 4.0 4.0 0.00 0.00 0.00 55 1010.2
20260504222305 73 201 3.0 4.0 0.00 0.00 0.00 56 1010.2
20260504221802 73 198 4.0 4.0 0.00 0.00 0.00 60 1010.2
20260504221259 73 203 3.0 4.0 0.00 0.00 0.00 58 1010.2
20260504220755 73 205 3.0 4.0 0.00 0.00 0.00 59 1010.2
20260504220252 72 202 4.0 4.0 0.00 0.00 0.00 61 1010.2
20260504215749 72 206 3.0 4.0 0.00 0.00 0.00 61 1010.3
20260504215246 71 192 4.0 5.0 0.00 0.00 0.00 62 1010.4
20260504214742 71 199 4.0 6.0 0.00 0.00 0.00 63 1010.5
20260504214238 70 198 4.0 6.0 0.00 0.00 0.00 64 1010.5
20260504213735 69 203 5.0 6.0 0.00 0.00 0.00 66 1010.5
20260504213232 70 223 4.0 6.0 0.00 0.00 0.00 64 1010.6
20260504212729 71 201 3.0 6.0 0.00 0.00 0.00 64 1010.7
20260504212225 70 216 3.0 5.0 0.00 0.00 0.00 64 1010.6
20260504211723 71 206 4.0 4.0 0.00 0.00 0.00 61 1010.6
20260504211219 71 194 5.0 6.0 0.00 0.00 0.00 63 1010.7
20260504210717 70 198 5.0 7.0 0.00 0.00 0.00 64 1010.6
20260504210214 71 202 4.0 7.0 0.00 0.00 0.00 62 1010.8
20260504205710 71 199 6.0 7.0 0.00 0.00 0.00 64 1010.7
20260504205208 70 191 5.0 7.0 0.00 0.00 0.00 65 1010.8
20260504204706 69 197 6.0 7.0 0.00 0.00 0.00 66 1010.6
20260504204205 69 200 6.0 8.0 0.00 0.00 0.00 65 1010.9
20260504203703 69 197 7.0 8.0 0.00 0.00 0.00 66 1011.0
20260504203201 69 199 6.0 6.0 0.00 0.00 0.00 68 1011.0
20260504202700 67 198 5.0 8.0 0.00 0.00 0.00 69 1010.8
20260504202158 67 203 5.0 7.0 0.00 0.00 0.00 69 1010.9
20260504201654 67 202 6.0 7.0 0.00 0.00 0.00 69 1010.8
20260504201152 66 198 4.0 7.0 0.00 0.00 0.00 71 1010.8
20260504200649 66 202 6.0 8.0 0.00 0.00 0.00 71 1010.8
20260504200146 66 201 7.0 9.0 0.00 0.00 0.00 72 1010.8
20260504195642 66 199 6.0 7.0 0.00 0.00 0.00 72 1010.9
20260504195138 66 196 8.0 11.0 0.00 0.00 0.00 73 1010.9
20260504194635 66 201 8.0 8.0 0.00 0.00 0.00 73 1011.0
20260504194131 66 192 6.0 9.0 0.00 0.00 0.00 74 1010.9
20260504193627 66 200 8.0 9.0 0.00 0.00 0.00 73 1011.0
20260504193126 65 199 8.0 8.0 0.00 0.00 0.00 73 1011.0
20260504192623 65 191 4.0 7.0 0.00 0.00 0.00 73 1011.1
20260504192121 66 202 6.0 9.0 0.00 0.00 0.00 73 1011.1
20260504191620 64 202 6.0 6.0 0.00 0.00 0.00 74 1011.1
20260504191115 65 202 7.0 8.0 0.00 0.00 0.00 73 1011.2
20260504190612 65 203 6.0 7.0 0.00 0.00 0.00 72 1011.2
20260504190108 64 231 6.0 10.0 0.00 0.00 0.00 77 1011.3
20260504185605 61 195 7.0 9.0 0.00 0.00 0.00 79 1011.3
20260504185101 61 194 7.0 10.0 0.00 0.00 0.00 80 1011.2
20260504184557 60 197 5.0 9.0 0.00 0.00 0.00 80 1011.2
20260504184052 60 205 7.0 7.0 0.00 0.00 0.00 80 1011.4
20260504183550 61 209 6.0 9.0 0.00 0.00 0.00 79 1011.3
20260504183048 61 199 7.0 9.0 0.00 0.00 0.00 79 1011.1
20260504182544 60 199 6.0 9.0 0.00 0.00 0.00 79 1011.2
20260504182042 61 206 7.0 10.0 0.00 0.00 0.00 78 1011.2
20260504181539 61 198 7.0 9.0 0.00 0.00 0.00 77 1011.3
20260504181037 62 194 4.0 7.0 0.00 0.00 0.00 76 1011.5
20260504180536 62 184 3.0 5.0 0.00 0.00 0.00 76 1011.4
20260504180034 62 294 0.0 1.0 0.00 0.00 0.00 78 1011.4
20260504175531 62 264 0.0 2.0 0.00 0.00 0.00 79 1011.3
20260504175028 61 11 0.0 2.0 0.00 0.00 0.00 80 1011.5
20260504174526 60 346 1.0 3.0 0.00 0.00 0.00 80 1011.4
20260504174022 60 74 0.0 2.0 0.00 0.00 0.00 82 1011.4
20260504173519 60 32 2.0 2.0 0.00 0.00 0.00 82 1011.4
20260504173017 60 343 0.0 2.0 0.00 0.00 0.00 82 1011.2
20260504172513 59 345 1.0 2.0 0.00 0.00 0.00 84 1011.3
20260504172009 59 33 2.0 2.0 0.00 0.00 0.00 85 1011.3
20260504171506 58 63 0.0 2.0 0.00 0.00 0.00 85 1011.3
20260504171003 58 352 2.0 2.0 0.00 0.00 0.00 85 1011.2
20260504170459 58 19 2.0 2.0 0.00 0.00 0.00 86 1011.3
20260504160419 55 114 0.0 1.0 0.00 0.00 0.00 88 1011.0
20260504150843 53 20 0.0 2.0 0.00 0.00 0.00 90 1010.6
20260504150339 52 8 0.0 2.0 0.00 0.00 0.00 90 1010.9
20260504141309 52 66 0.0 1.0 0.00 0.00 0.00 89 1010.5
20260504140806 52 15 0.0 1.0 0.00 0.00 0.00 89 1010.4
20260504140302 52 74 0.0 1.0 0.00 0.00 0.00 88 1010.4
20260504130731 52 77 0.0 2.0 0.00 0.00 0.00 87 1010.1
20260504130226 52 75 0.0 2.0 0.00 0.00 0.00 86 1009.9
20260504120150 53 81 0.0 1.0 0.00 0.00 0.00 82 1009.9
20260504110618 54 75 1.0 1.0 0.00 0.00 0.00 81 1009.7
20260504110114 54 29 0.0 2.0 0.00 0.00 0.00 80 1009.6
20260504100539 55 49 0.0 0.0 0.00 0.00 0.00 80 1009.6